Tracking 27380 objects as of 6-Jun-2023
HD Live streaming from Space Station
objects crossing your sky now

COSMOS 842

Track COSMOS 842 now!
10-day predictions
COSMOS 842 is classified as:


NORAD ID: 9025
Int'l Code: 1976-070A
Perigee: 970.5 km
Apogee: 1,013.4 km
Inclination: 83.0 °
Period: 104.8 minutes
Semi major axis: 7362 km
RCS: 2.9713 m2 (large)
Launch date: July 21, 1976
Source: Commonwealth of Independent States (former USSR) (CIS)
Launch site: PLESETSK MISSILE AND SPACE COMPLEX (PKMTR)
Your satellite tracking list
Your tracking list is empty




NASA's NSSDC Master Catalog

Two Line Element Set (TLE):
1 09025U 76070A   23157.55706910  .00000045  00000-0  31551-4 0  9995
2 09025  82.9856 149.7455 0029146 109.6827  29.8359 13.74115020350105
Source of the keplerian elements: AFSPC